Adrian, MI

2:46 AM EST on February 23, 2017 (GMT -0500)
Lenawee County

Weather History for KADG - November, 2013

Change the Weather History Date:

Sunday, November 10, 2013

  Actual Average Record
Temperature  
Mean Temperature 40 °F -  
Max Temperature 46 °F 51 °F 67 °F (1949)
Min Temperature 34 °F 31 °F 16 °F (1991)
Degree Days  
Heating Degree Days 24    
Moisture  
Dew Point 29 °F    
Average Humidity 59    
Maximum Humidity 85    
Minimum Humidity 48    
Precipitation  
Precipitation 0.00 in - - ()
Sea Level Pressure  
Sea Level Pressure 30.18 in    
Wind  
Wind Speed 13 mph (WNW)    
Max Wind Speed 22 mph    
Max Gust Speed 33 mph    
Visibility 10 miles    
Events      
Averages and records for this station are not official NWS values.
T = Trace of Precipitation, MM = Missing Value Source: NWS Daily Summary

Daily Weather History Graph

Daily Weather History Graph

Search for Another Location

Airport or City:

Trip Planner

Search our weather history database for the weather conditions in past years. The results will help you decide how hot, cold, wet, or windy it might be!

Date:

Astronomy

Nov. 10, 2013 Rise Set
Actual Time 7:20 AM EST 5:19 PM EST
Civil Twilight 6:50 AM EST 5:49 PM EST
Nautical Twilight 6:16 AM EST 6:22 PM EST
Astronomical Twilight 5:44 AM EST 6:55 PM EST
Moon 1:30 PM EST (11/10) No Moon Set
Length of Visible Light 10h 59m
Length of Day
9h 59m
First Quarter, 55% of the Moon is Illuminated
Nov 10
First Quarter
Nov 17
Full
Nov 25
Last Quarter
Dec 2
New
Dec 9
First Quarter

Hourly Weather History & Observations

Time (EST) Temp. Windchill Dew Point Humidity Pressure Visibility Wind Dir Wind Speed Gust Speed Precip Events Conditions
12:53 AM 46.9 °F - 34.0 °F 61% 29.96 in 10.0 mi WNW 12.7 mph 23.0 mph N/A   Clear
1:53 AM 46.0 °F 38.0 °F 30.9 °F 56% 29.98 in 10.0 mi NW 21.9 mph 26.5 mph N/A   Scattered Clouds
2:53 AM 45.0 °F 38.5 °F 28.9 °F 53% 29.98 in 10.0 mi WNW 13.8 mph 19.6 mph N/A   Overcast
3:53 AM 44.1 °F 37.1 °F 28.9 °F 55% 30.00 in 10.0 mi NW 15.0 mph 20.7 mph N/A   Overcast
4:53 AM 43.0 °F 36.0 °F 28.9 °F 58% 30.02 in 10.0 mi NNW 13.8 mph 29.9 mph N/A   Overcast
5:53 AM 42.1 °F 34.9 °F 26.1 °F 53% 30.06 in 10.0 mi NW 13.8 mph 25.3 mph N/A   Overcast
6:53 AM 42.1 °F 34.5 °F 25.0 °F 51% 30.09 in 10.0 mi NW 15.0 mph 20.7 mph N/A   Overcast
7:53 AM 42.1 °F 35.2 °F 28.0 °F 58% 30.12 in 10.0 mi NW 12.7 mph 21.9 mph N/A   Overcast
8:53 AM 42.1 °F 36.6 °F 28.0 °F 58% 30.15 in 10.0 mi NNW 9.2 mph 23.0 mph N/A   Overcast
9:53 AM 42.1 °F 34.9 °F 28.0 °F 58% 30.19 in 10.0 mi NW 13.8 mph 23.0 mph N/A   Overcast
10:53 AM 43.0 °F 36.8 °F 28.0 °F 56% 30.22 in 10.0 mi NW 11.5 mph 19.6 mph N/A   Overcast
11:53 AM 45.0 °F 37.6 °F 28.9 °F 53% 30.22 in 10.0 mi NW 17.3 mph 25.3 mph N/A   Mostly Cloudy
12:53 PM 46.9 °F - 28.9 °F 50% 30.22 in 10.0 mi NW 19.6 mph 33.4 mph N/A   Mostly Cloudy
1:53 PM 46.0 °F 39.0 °F 28.0 °F 50% 30.23 in 10.0 mi NW 17.3 mph 24.2 mph N/A   Mostly Cloudy
2:53 PM 46.9 °F - 28.0 °F 48% 30.25 in 10.0 mi NW 16.1 mph 23.0 mph N/A   Overcast
3:53 PM 46.9 °F - 28.0 °F 48% 30.27 in 10.0 mi NW 13.8 mph 23.0 mph N/A   Mostly Cloudy
4:53 PM 45.0 °F 40.1 °F 28.0 °F 52% 30.28 in 10.0 mi WNW 9.2 mph - N/A   Clear
5:53 PM 41.0 °F 37.1 °F 28.0 °F 60% 30.30 in 10.0 mi WNW 5.8 mph - N/A   Clear
6:53 PM 39.0 °F 36.8 °F 28.0 °F 65% 30.31 in 10.0 mi West 3.5 mph - N/A   Clear
7:53 PM 37.9 °F 34.4 °F 28.0 °F 68% 30.31 in 10.0 mi West 4.6 mph - N/A   Clear
8:53 PM 37.0 °F 32.4 °F 28.9 °F 73% 30.31 in 10.0 mi West 5.8 mph - N/A   Clear
9:53 PM 37.0 °F 33.3 °F 30.0 °F 76% 30.31 in 10.0 mi West 4.6 mph - N/A   Clear
10:53 PM 35.1 °F 32.2 °F 28.9 °F 78% 30.30 in 10.0 mi West 3.5 mph - N/A   Clear
11:53 PM 34.0 °F 29.8 °F 30.0 °F 85% 30.29 in 10.0 mi SW 4.6 mph - N/A   Partly Cloudy